Location: Newark
(25.0000°N, 73.5000°E)
Time: 00:57:11
(UTC+00:00)

Tiros 1 despin weight - Pass Details

Date: 10 March 2021
Orbit: 593 x 641 km, 48.2° (Epoch: 15 April)

Event Time Altitude Azimuth Distance (km) Brightness Sun altitude
Rises 00:42:23 0° 290° (WNW) 2,931 - -9.4°
Reaches altitude 10° 00:45:38 10° 267° (W) 2,023 - -8.7°
Exits shadow 00:45:50 11° 265° (W) 1,979 ? -8.6°
Maximum altitude 00:48:12 15° 233° (SW) 1,726 ? -8.1°
Drops below altitude 10° 00:50:47 10° 199° (SSW) 2,019 ? -7.5°
Sets 00:54:02 0° 175° (S) 2,921 ? -6.8°
